TimeCST,TemperatureF,Dew PointF,Humidity,Sea Level PressureIn,VisibilityMPH,Wind Direction,Wind SpeedMPH,Gust SpeedMPH,PrecipitationIn,Events,Conditions,WindDirDegrees,DateUTC
12:53 AM,51.1,45.0,80,30.27,10.0,NE,4.6,-,N/A,,Clear,50,2013-11-11 06:53:00
1:53 AM,48.9,44.1,83,30.27,10.0,ENE,3.5,-,N/A,,Clear,60,2013-11-11 07:53:00
2:53 AM,50.0,44.1,80,30.27,10.0,ENE,3.5,-,N/A,,Clear,70,2013-11-11 08:53:00
3:53 AM,48.9,43.0,80,30.27,10.0,Calm,Calm,-,N/A,,Partly Cloudy,0,2013-11-11 09:53:00
4:53 AM,50.0,45.0,83,30.27,10.0,NE,3.5,-,N/A,,Overcast,50,2013-11-11 10:53:00
5:53 AM,50.0,46.0,86,30.28,10.0,ENE,3.5,-,N/A,,Overcast,60,2013-11-11 11:53:00
6:53 AM,48.0,44.1,86,30.29,10.0,NE,3.5,-,N/A,,Clear,50,2013-11-11 12:53:00
7:53 AM,51.1,46.0,83,30.30,10.0,NE,3.5,-,N/A,,Clear,50,2013-11-11 13:53:00
8:53 AM,55.0,46.0,72,30.30,10.0,East,4.6,-,N/A,,Clear,80,2013-11-11 14:53:00
9:53 AM,57.9,46.0,65,30.29,10.0,NNE,3.5,-,N/A,,Clear,20,2013-11-11 15:53:00
10:53 AM,63.0,46.9,56,30.27,10.0,NNE,4.6,-,N/A,,Mostly Cloudy,30,2013-11-11 16:53:00
11:53 AM,66.0,46.9,50,30.24,10.0,Calm,Calm,-,N/A,,Clear,0,2013-11-11 17:53:00
12:53 PM,70.0,45.0,41,30.21,10.0,NNW,3.5,-,N/A,,Clear,330,2013-11-11 18:53:00
1:53 PM,70.0,46.9,44,30.19,10.0,Calm,Calm,-,N/A,,Partly Cloudy,0,2013-11-11 19:53:00
2:53 PM,71.1,48.9,45,30.18,10.0,WSW,4.6,-,N/A,,Clear,250,2013-11-11 20:53:00
3:53 PM,71.1,48.9,45,30.18,10.0,West,3.5,-,N/A,,Clear,260,2013-11-11 21:53:00
4:53 PM,68.0,50.0,52,30.18,10.0,Calm,Calm,-,N/A,,Clear,0,2013-11-11 22:53:00
5:53 PM,61.0,52.0,72,30.19,10.0,Calm,Calm,-,N/A,,Clear,0,2013-11-11 23:53:00
6:53 PM,60.1,51.1,72,30.21,10.0,Calm,Calm,-,N/A,,Overcast,0,2013-11-12 00:53:00
7:53 PM,61.0,53.1,75,30.22,10.0,Calm,Calm,-,N/A,,Overcast,0,2013-11-12 01:53:00
8:53 PM,62.1,54.0,75,30.23,10.0,Calm,Calm,-,N/A,,Overcast,0,2013-11-12 02:53:00
9:53 PM,61.0,53.1,75,30.25,10.0,Calm,Calm,-,N/A,,Overcast,0,2013-11-12 03:53:00
10:53 PM,64.0,53.1,67,30.27,10.0,North,8.1,-,N/A,,Overcast,350,2013-11-12 04:53:00
11:53 PM,63.0,52.0,67,30.28,10.0,North,9.2,-,N/A,,Overcast,360,2013-11-12 05:53:00